Regional Weather Roundup
Issued by NWS

Current Version | Previous Version | Graphics & Text | Print | Product List | Glossary On
Versions: 1 2 3 4 5 6 7 8 9 10 11 12 13 14 15 16 17 18 19 20 21 22 23 24 25 26 27 28 29 30 31 32 33 34 35 36 37 38 39 40 41 42 43 44 45 46 47 48 49 50
000
ASUS43 KIND 190709
RWRIN

WEATHER ROUNDUP FOR INDIANA
NATIONAL WEATHER SERVICE INDIANAPOLIS IN
300 AM EDT MON APR 19 2021

NOTE: "FAIR" INDICATES FEW OR NO CLOUDS BELOW 12,000 FEET WITH NO
SIGNIFICANT WEATHER AND/OR OBSTRUCTIONS TO VISIBILITY.

* - STATION DOES NOT REPORT WEATHER SUCH AS PRECIPITATION OR FOG.

+ - STATION NOT QUALITY CONTROLLED BY THE NATIONAL WEATHER SERVICE.
    USE DATA WITH CAUTION...ESPECIALLY DEWPOINT AND RELATIVE
    HUMIDITY OBSERVATIONS.

INZ001>003-010>013-019-020-190800-
NORTHWEST INDIANA

CITY           SKY/WX    TMP DP  RH WIND       PRES   REMARKS
GARY /AIRPORT/ CLEAR     47  33  58 SW3       29.84S
KNOX *+        PTCLDY    45  36  70 SW6       29.84F
LA PORTE +     CLEAR     45  35  68 SW5       29.84F
MICHIGAN CITY+ PTCLDY    46  32  57 S5        29.83F
MONTICELLO +   CLOUDY    47  37  67 SW7       29.87S
RENSSELAER +   PTCLDY    41  34  75 SW5       29.86F
VALPARAISO     CLEAR     46  34  62 SW6       29.84F

$$

LMZ046-743>745-190800-
SOUTHERN LAKE MICHIGAN

STATION/POSITION TIME  TEMP    WIND        PRES    WAVE
                       AIR SEA DIR/SP/G            HT
                 (UTC) (F)     (DEG/KT/KT) (MB)    (FT)
BURNS HARBOR     0640   53     210/  6/  9 1010.5F
MICHIGAN CITY    0640   52     200/ 10/ 12 1010.2F

$$

INZ004-005-014>016-021>024-190800-
NORTH CENTRAL INDIANA

CITY           SKY/WX    TMP DP  RH WIND       PRES   REMARKS
GOSHEN         PTCLDY    45  34  65 SW8       29.83F
LOGANSPORT +   MOCLDY    45  37  76 CALM      29.88S
PERU/GRISSOM   CLOUDY    45  45 100 SW8       29.85F
PLYMOUTH *+    CLOUDY    48  36  61 SW5       29.84S
ROCHESTER +    PTCLDY    50  37  62 SW5       29.86F
SOUTH BEND     PTCLDY    49  33  54 SW8       29.83F
WARSAW +       PTCLDY    46  34  61 SW3       29.85F

$$

INZ006>009-017-018-025>027-190800-
NORTHEAST INDIANA

CITY           SKY/WX    TMP DP  RH WIND       PRES   REMARKS
ANGOLA *+      PTCLDY    45  32  61 S3        29.83F
AUBURN +       PTCLDY    45  32  61 S3        29.85F
FORT WAYNE     MOCLDY    42  33  70 SW9       29.86F
HUNTINGTON +   MOCLDY    44  33  67 S3        29.86F
KENDALLVILLE + MOCLDY    45  33  62 SW6       29.84F

$$

INZ028-029-035-036-043>045-051>053-190800-
WEST CENTRAL INDIANA

CITY           SKY/WX    TMP DP  RH WIND       PRES   REMARKS
CRAWFORDSVL +  CLEAR     42  38  84 CALM      29.89F
GREENCASTLE +  FAIR      46  40  81 SW5       29.90S
LAFAYETTE      PTCLDY    51  39  63 SW6       29.88F
TERRE HAUTE    CLEAR     44  39  82 CALM      29.91F

$$

INZ030>032-037>040-046>048-054>057-064-065-190800-
CENTRAL INDIANA

CITY           SKY/WX    TMP DP  RH WIND       PRES   REMARKS
ANDERSON +     CLEAR     48  39  71 SW3       29.89S
FRANKFORT +    CLOUDY    46  39  76 W9        29.88F
INDIANAPOLIS   PTCLDY    43  39  86 SW6       29.89F
-EAGLE CREEK   CLEAR     47  40  76 CALM      29.88F
KOKOMO +       MOCLDY    46  39  76 SW7       29.88S
MARION +       PTCLDY    43  37  78 SW8       29.88F
MT COMFORT *+  CLEAR     43  43 100 CALM      29.89F
SHELBYVILLE    CLEAR     46  38  73 W5        29.89F

$$

INZ033-034-041-042-049-050-058-059-190800-
EAST CENTRAL INDIANA

CITY           SKY/WX    TMP DP  RH WIND       PRES   REMARKS
MUNCIE         CLEAR     49  35  58 SW6       29.87F
PORTLAND +     FAIR      45  28  53 CALM      29.87S
RICHMOND +     FAIR      43  37  81 W5        29.89F

$$

INZ060-061-067>069-081>083-085>088-190800-
SOUTHWEST INDIANA

CITY           SKY/WX    TMP DP  RH WIND       PRES   REMARKS
EVANSVILLE     FOG       43  42  97 CALM      29.93F VSB 1/2
HUNTINGBURG +  CLEAR     46  44  93 SW5       29.93F
WASHINGTON +   CLEAR     43  43  99 CALM      29.92S

$$

INZ062-063-066-070>080-084-089>092-190800-
SOUTH CENTRAL AND SOUTHEAST INDIANA

CITY           SKY/WX    TMP DP  RH WIND       PRES   REMARKS
BATESVILLE +   PTCLDY    43  43 100 CALM      29.89F
BLOOMINGTON    CLEAR     41  37  86 CALM      29.90F
FRENCH LICK *+ CLEAR     45  41  87 CALM      29.92F
JEFFERSONVL +  FAIR      46  42  87 CALM      29.92S
MADISON *+     PTCLDY    43  43 100 CALM      29.92F

$$




USA.gov is the U.S. government's official web portal to all federal, state and local government web resources and services.